Regional Weather Roundup
Issued by NWS

Home | Current Version | Previous Version | Text Only | Print | Product List | Glossary On
Versions: 1 2 3 4 5 6 7 8 9 10 11 12 13 14 15 16 17 18 19 20 21 22 23 24 25 26 27 28 29 30 31 32 33 34 35 36 37 38 39 40 41 42 43 44 45 46 47 48 49 50
000
ASUS45 KABQ 052110
RWRNM
WEATHER ROUNDUP FOR NEW MEXICO
NATIONAL WEATHER SERVICE ALBUQUERQUE NM
300 PM MDT TUE MAY 05 2015

NOTE: "FAIR" MEANS FEW OR NO CLOUDS BELOW 12,000 FEET AGL WITH NO
       SIGNIFICANT WEATHER OR OBSTRUCTIONS TO VISION.

      THIS PRODUCT IS RELEASED AS TWO VERSIONS.  ONE VERSION NEAR
      THE TOP OF THE HOUR CONTAINING PRELIMINARY DATA FROM ALBUQUERQUE
      AND OTHER STATIONS.  A FINAL VERSION WITH ADDITIONAL DATA IS
      ISSUED ABOUT 10 MINUTES AFTER THE HOUR.

NMZ501-503-504-510>518-052200-
NORTHWEST PLATEAU/NORTHCENTRAL MOUNTAINS

CITY           SKY/WX    TMP DP  RH WIND       PRES   REMARKS
FARMINGTON     PTSUNNY   54  47  77 S3        29.90F
LOS ALAMOS     PTSUNNY   55  37  49 S7        29.92F
SANTA FE       PTSUNNY   58  42  55 SE10      29.89F
TAOS           CLOUDY    54  36  50 W5        29.92F
ANGEL FIRE     CLOUDY    42  38  87 E5        29.94F

$$
NMZ402-403-502-505>509-052200-
WESTCENTRAL MOUNTAINS/SOUTHWEST MOUNTAINS

CITY           SKY/WX    TMP DP  RH WIND       PRES   REMARKS
GALLUP         PTSUNNY   58  43  57 SW16      29.94F
GRANTS         CLOUDY    54  43  66 W12       29.96F
SILVER CITY      N/A     68  32  26 W16G26    29.99F

$$
NMZ407-409-411-412-052200-
SOUTHERN DESERTS

CITY           SKY/WX    TMP DP  RH WIND       PRES   REMARKS
LORDSBURG      CLOUDY    70  36  28 W20G25    29.95S
DEMING         MOSUNNY   75  34  22 W20G28    29.93F
LAS CRUCES     PTSUNNY   74  32  21 W13G24    29.94F
HOLLOMAN AFB   MOSUNNY   76  35  23 SW13G23   29.87F
ALAMOGORDO     MOSUNNY   73  32  21 SW16      29.90F
T OR C         MOSUNNY   72  30  21 W10G18    29.87F

$$
NMZ519>523-052200-
CENTRAL VALLEYS/CENTRAL HIGHLANDS

CITY           SKY/WX    TMP DP  RH WIND       PRES   REMARKS
ALBUQUERQUE    PTSUNNY   63  42  46 W6        29.90F
DOUBLE EAGLE   PTSUNNY   55  45  67 NW15      29.92F
MORIARTY ARPT  FAIR      58  38  47 W24       29.93S
CLINES CORNERS PTSUNNY   58  37  45 W22G29    29.91F
BELEN          MOCLDY    58  43  56 SE10      29.91S
SOCORRO        LGT RAIN  62  46  55 N3        29.89S

$$
NMZ524>526-539-540-052200-
SOUTHCENTRAL MOUNTAINS

CITY           SKY/WX    TMP DP  RH WIND       PRES   REMARKS
RUIDOSO        MOSUNNY   59  32  36 SW28G33   29.97F

$$
NMZ527>531-052200-
NORTHEAST HIGHLANDS/NORTHEAST PLAINS

CITY           SKY/WX    TMP DP  RH WIND       PRES   REMARKS
LAS VEGAS      PTSUNNY   59  37  44 W21G32    29.87F
RATON          MOSUNNY   63  44  50 SW18G24   29.83F
CLAYTON        LGT RAIN  56  51  84 S15       29.83F

$$
NMZ532>537-052200-
EASTCENTRAL PLAINS

CITY           SKY/WX    TMP DP  RH WIND       PRES   REMARKS
TUCUMCARI      PTSUNNY   66  51  58 E8        29.79F
CANNON AFB     MOSUNNY   70  52  53 SW18G24   29.84F
CLOVIS AIRPORT CLOUDY    66  50  55 S10       29.85F

$$
NMZ028-029-538-052200-
SOUTHEAST PLAINS

CITY           SKY/WX    TMP DP  RH WIND       PRES   REMARKS
ROSWELL        MOSUNNY   72  48  42 E13       29.81F
ARTESIA        MOSUNNY   79  36  21 SW21G31   29.84S
CARLSBAD       SUNNY     80  38  22 SW20G26   29.83F
HOBBS          MOSUNNY   73  48  40 S20       29.86F


$$


USA.gov is the U.S. government's official web portal to all federal, state and local government web resources and services.